Main page
METAR-TAF:

METAR-TAF

Airports :

Gaines County Airport

Seminole, Texas, United States

latitude: 32-40-31N, longitude: 102-39-09W, elevation: 3313 ft

Current weather observation

The report was made 25 minutes ago, at 09:55 UTC
Wind 5 mph from the West
Temperature 25°F
Humidity 93%
Pressure 30.19 in. Hg
Visibility: 7 miles
Clear sky

METAR: KGNC 190955Z AUTO 27004KT 7SM CLR M04/M05 A3019 RMK AO2 T10371049

Time: 04:20 (10:20 UTC)


TAF: missing

Weather observations and forecasts of more than 4000 airports (METAR and TAF reports).

The available stations are represented by yellow and red dots on the map.

Hover mouse over dot to see the name of the station.

Then click to see weather observations and forecasts.

To change the map : click on the green buttons with a black cross to zoom in, on the green button with a dash to zoom out, or on the green arrows for adjacent maps.


METAR-TAF: